sat.trackr.live / text

‹ back to catalog

COSMOS 2437

NORAD 32954 · 2008-025B

PAYLOAD ACTIVE UNKNOWN

§ Identity

Operator
Country
CIS
Launch date
2008-05-23
Launch site
PLMSC
Launch vehicle
Mass (kg)
RCS (m²)
0.87

External: N2YO · Heavens-Above · Gunter

§ Orbital elements

Epoch: 2026-09-20T05:05:15.427104Z

Period
115.87 min
Inclination
82.4999°
Eccentricity
0.0021629
Mean motion
12.42760831 rev/d
Perigee alt
1,477.9 km
Apogee alt
1,511.9 km
Semi-major
7,873.1 km
B*
-1.1667e-4
RAAN
298.4001°
Arg perigee
120.8492°
Mean anomaly
326.3106°
Rev number
83,117

§ Raw data

COSMOS 24371 32954U 08025B   26263.21198411 -.00000006  00000+0 -11667-3 0  99952 32954  82.4999 298.4001 0021629 120.8492 326.3106 12.42760831831171

JSON: /api/v1/satellites/32954 · /tle

For live sub-satellite position, see the globe view (requires WebGL).

§ Visibility from observer

Set your observer location to see the next 7 days of passes ≥ 10°. The values pass through the URL so the page stays shareable.

No JS? Fill the form by hand. The geolocation button needs JavaScript.